Dewpoint
54 55 55 55 55 56 56 56 57 56 57 57 57 57 57 57 57 57 57 57 58 58 58 59 59 59 59 60 60 60 59 50 49 45 39 38 52 64 63 64 65 66 59 35 35 31 30 31 29 32 36 34 36 33 37 37 38 32 24 24 18 18 23 27 24 23 22 20 20 22 21 20 21 22 23 22 21 22 22 21 21 22 23 23 23 35 45 46
54 55 55 55 55 55 56 56 56 56 57 57 57 57 57 57 58 57 57 57 58 58 58 59 59 59 59 59 60 60 56 50 44 44 41 50 67 66 65 66 65 62 50 34 32 32 29 29 30 33 30 31 38 36 37 35 36 31 28 17 15 26 27 30 25 25 21 21 21 22 24 22 22 22 23 21 21 21 21 21 22 22 22 22 23 24 32 47
54 55 55 55 55 55 55 56 56 56 57 57 57 57 57 56 57 58 57 57 58 58 58 59 59 59 60 60 60 59 54 44 32 28 35 63 66 68 66 65 63 60 37 34 34 32 28 28 30 29 32 27 30 32 35 33 32 34 27 22 27 29 28 30 26 24 21 22 23 24 25 23 24 24 25 23 21 22 21 19 20 20 20 22 22 23 25 44
54 55 55 55 54 55 55 55 56 56 56 57 57 57 57 57 57 58 58 57 58 58 58 59 59 59 59 60 60 56 47 30 26 29 40 63 67 66 66 65 63 52 40 36 34 32 30 28 29 30 30 26 28 36 33 35 26 31 27 24 26 29 25 22 28 27 24 23 24 25 26 23 23 24 24 23 21 21 20 21 20 19 20 21 23 25 25 26
54 54 55 54 54 55 55 55 56 56 56 57 57 57 57 57 57 58 58 58 58 58 58 58 59 59 59 60 59 52 35 23 25 35 39 65 66 67 66 64 61 43 41 39 33 30 28 28 29 29 28 22 28 30 33 35 31 32 27 29 30 28 25 24 26 27 25 26 25 25 23 22 25 25 24 23 22 21 20 20 22 22 22 23 23 23 24 24
55 54 55 54 54 55 55 55 56 56 57 57 57 57 57 57 58 58 58 58 58 58 58 58 59 59 59 59 52 43 32 22 26 35 64 65 66 66 65 63 59 42 38 35 34 30 28 27 27 27 24 22 23 19 19 32 32 26 27 28 30 28 25 26 25 24 23 23 23 23 24 25 25 23 25 24 23 22 23 24 25 24 24 24 24 25 28 29
55 54 55 55 53 55 55 55 56 56 57 56 57 57 57 58 58 58 58 58 58 58 58 58 58 59 59 58 49 33 30 28 33 43 64 67 66 65 63 60 52 40 36 34 32 30 30 26 25 28 25 23 22 21 21 24 28 28 26 27 27 29 28 28 27 27 24 23 22 24 24 22 23 20 23 22 22 23 23 25 25 23 22 26 28 31 32 32
55 54 55 54 54 54 55 55 56 56 56 57 57 57 58 58 58 58 58 58 58 58 58 57 57 58 58 48 40 35 36 33 34 49 60 64 59 58 53 46 43 40 34 34 31 29 27 24 23 28 23 20 21 22 25 24 26 30 28 29 28 25 27 27 26 23 22 22 22 24 22 20 22 21 23 20 20 21 23 22 20 22 27 30 31 31 32 32
55 54 54 54 54 55 55 55 55 56 56 57 58 58 58 59 59 58 58 58 58 57 57 57 57 58 56 41 36 36 35 42 43 53 59 54 51 46 41 38 42 37 37 36 34 31 28 25 26 24 20 22 24 26 24 21 20 28 28 26 23 21 22 22 21 21 21 21 22 21 20 20 20 23 22 21 21 22 22 20 20 26 30 30 30 30 31 31
55 54 55 54 54 55 55 55 55 56 57 57 58 59 59 59 59 58 59 58 57 57 57 57 57 58 47 40 37 30 36 48 57 59 55 54 48 44 44 42 40 36 35 35 31 29 29 29 29 29 27 27 25 23 25 23 21 26 27 24 21 21 21 22 21 21 22 22 21 20 19 20 21 21 17 19 22 21 20 19 21 28 30 30 30 30 30 31
55 55 55 54 54 55 56 56 57 57 57 58 58 59 59 59 59 58 58 57 57 57 57 56 58 52 44 40 33 29 41 53 55 56 53 50 45 42 44 45 40 37 36 37 34 31 31 30 36 33 32 25 24 23 23 22 23 23 22 22 21 21 22 21 21 21 21 20 21 20 19 21 20 23 18 19 21 21 19 19 21 29 30 30 30 30 31 31
55 55 55 54 55 56 56 57 57 57 58 58 59 59 59 59 58 58 58 57 57 56 57 56 58 52 44 37 35 33 45 46 53 54 48 46 45 46 47 46 41 42 36 35 39 41 40 34 34 27 24 28 22 24 22 23 23 23 22 20 20 21 20 21 20 21 22 20 21 20 19 18 20 18 19 20 21 20 19 19 23 29 30 30 30 30 30 30
56 55 55 55 55 56 57 58 58 58 59 59 59 59 59 59 58 58 57 57 57 57 57 57 56 51 38 31 34 40 44 46 53 50 48 49 47 47 45 43 43 42 38 37 37 39 43 35 32 29 31 25 25 23 25 25 24 22 21 20 19 21 21 22 22 20 20 20 21 20 18 20 20 19 19 20 21 19 18 20 26 30 30 29 29 29 30 31
56 56 57 57 57 58 59 59 59 59 59 59 59 59 58 58 58 58 58 57 57 57 57 58 51 48 32 30 33 41 45 50 51 50 48 48 43 45 45 44 40 38 43 40 37 38 39 36 34 31 30 27 25 32 24 24 23 18 20 21 20 20 22 23 22 21 21 22 20 21 20 19 19 20 22 21 20 18 18 23 28 29 29 29 29 29 30 30
56 56 57 58 58 58 58 58 59 59 59 59 59 58 58 58 58 57 57 56 56 57 57 57 48 36 33 33 38 39 54 48 48 47 48 44 42 41 42 40 37 35 35 34 33 35 37 35 32 30 29 28 27 24 21 24 25 25 21 23 26 20 22 23 24 22 21 20 20 19 20 18 19 19 20 21 19 19 20 27 28 29 28 28 28 28 29 29
56 57 57 58 58 58 58 58 59 59 59 58 58 58 59 59 59 57 57 57 56 56 52 46 48 36 31 31 36 48 41 42 43 45 44 47 42 39 42 40 39 33 33 33 35 30 30 30 28 28 26 24 23 25 25 23 24 26 21 25 23 21 21 22 23 23 23 19 18 18 18 17 18 19 20 20 19 20 23 28 28 28 28 28 28 28 28 28
57 57 58 58 58 58 58 58 58 59 59 59 59 58 59 58 58 57 57 57 54 54 51 46 49 39 32 37 39 34 35 39 44 42 40 43 44 42 37 37 34 30 29 29 31 31 28 26 29 25 27 22 24 25 19 23 21 23 24 21 26 21 21 21 23 23 25 18 17 17 17 16 18 18 18 20 21 21 25 28 28 28 28 28 28 27 27 27
57 58 58 58 58 59 58 59 59 59 59 59 58 58 57 57 57 56 55 55 53 49 49 51 47 37 33 38 34 33 42 40 43 43 42 39 42 34 33 31 30 28 27 26 27 26 30 25 28 24 26 24 22 22 21 19 23 24 23 21 22 24 22 21 22 23 24 24 21 22 18 17 18 19 22 21 22 22 26 28 28 28 27 27 27 27 27 27
58 58 58 58 59 58 59 59 59 59 59 59 58 58 56 56 50 51 52 50 44 38 35 36 35 33 31 32 37 42 44 43 43 40 38 39 40 34 34 32 30 26 26 24 24 25 29 29 30 23 22 22 21 20 21 24 25 24 25 25 26 25 24 23 24 24 24 23 22 22 22 22 23 23 22 21 23 28 28 28 28 27 27 27 26 27 26 27
58 58 59 59 59 59 59 59 59 59 59 58 56 53 47 44 43 44 44 46 43 37 37 36 38 36 36 36 37 41 43 40 37 38 41 41 36 33 31 30 33 30 24 25 28 27 31 24 21 22 22 22 22 21 21 23 25 26 27 26 25 25 24 25 25 25 24 22 21 22 22 22 22 22 20 22 25 28 28 28 28 27 27 27 26 26 26 26
58 59 59 59 58 59 59 59 59 59 59 58 55 48 42 42 38 38 41 43 43 44 41 39 37 36 34 38 40 37 34 34 37 39 39 41 35 29 29 27 27 26 29 30 28 27 27 23 23 23 23 23 22 22 22 22 22 22 23 23 22 24 22 23 23 25 25 23 23 20 20 21 21 21 24 28 29 29 28 27 27 27 27 27 26 26 26 26
59 59 59 59 59 59 59 59 59 59 59 57 54 48 44 44 44 44 42 40 43 44 43 42 42 39 41 38 39 38 37 33 35 37 40 39 33 28 28 26 26 25 29 29 28 24 24 22 22 23 25 27 26 23 22 21 22 23 22 23 23 22 24 25 25 26 22 24 22 21 20 21 21 22 30 29 29 29 29 28 27 26 26 26 26 26 26 26
58 59 59 59 59 59 60 59 59 59 57 55 52 49 44 43 44 45 43 39 41 43 43 43 42 42 42 40 37 37 34 34 34 37 37 38 32 30 28 26 25 28 30 27 26 25 24 26 24 25 26 26 26 25 22 25 25 23 24 23 23 25 24 24 25 26 24 21 21 22 21 22 23 28 28 29 29 28 29 29 29 28 27 27 27 27 26 26
58 59 59 59 59 59 60 60 59 57 55 54 49 46 46 45 44 41 41 40 40 41 42 43 43 43 42 41 41 36 35 36 37 36 39 33 31 33 29 27 26 28 26 27 27 25 26 26 27 26 27 25 25 27 26 25 25 27 27 26 25 26 25 25 24 26 25 25 24 22 24 23 24 23 25 28 28 27 27 27 26 28 29 29 28 28 29 27
58 58 59 59 59 59 59 58 56 55 53 52 51 49 46 45 44 43 40 37 35 38 44 41 43 42 44 40 38 37 36 36 37 38 39 33 30 29 28 29 27 26 27 27 27 27 26 28 30 28 28 26 27 25 28 28 25 27 28 27 26 26 25 25 26 24 24 24 25 23 21 21 25 26 24 26 26 27 27 26 26 27 27 27 26 26 27 27
58 58 58 58 59 59 59 55 52 52 53 50 49 47 45 45 45 43 38 33 34 36 39 38 43 40 40 36 38 38 37 36 36 38 40 36 39 31 29 28 29 28 27 28 26 28 27 29 30 29 29 28 27 27 28 28 26 25 26 28 27 26 25 25 25 25 21 20 23 25 19 20 24 23 24 24 26 26 27 27 27 27 26 27 27 27 27 26
58 58 58 59 59 59 56 52 51 51 49 49 48 46 45 47 46 43 38 32 31 36 37 40 39 38 38 35 36 39 34 36 35 35 35 38 33 34 30 29 29 29 29 29 30 28 30 29 29 29 29 28 27 26 29 28 27 25 27 28 28 26 26 26 26 26 25 25 25 24 23 21 20 22 26 24 25 26 26 26 26 26 26 26 26 27 27 27
58 59 58 59 59 58 56 55 52 50 50 51 49 47 47 46 45 42 36 31 30 36 34 36 37 38 35 32 37 37 36 34 33 35 35 37 34 31 30 29 29 29 28 31 28 31 29 28 28 28 28 28 28 29 29 29 27 27 28 28 27 28 27 26 26 24 24 22 22 23 24 20 19 22 24 24 23 24 25 26 26 26 26 26 27 28 27 28
58 58 58 58 59 59 56 54 53 52 52 49 48 48 48 46 43 39 35 31 34 33 36 33 39 32 31 33 30 30 31 28 32 33 35 34 36 31 31 30 29 29 28 31 30 29 28 30 30 30 29 28 29 29 30 29 27 27 28 28 28 27 26 25 24 22 21 19 17 21 23 17 20 24 23 24 22 22 23 26 26 26 26 26 27 27 27 26
58 58 58 58 58 58 57 56 54 54 50 49 48 48 47 44 40 36 33 29 34 31 33 33 31 29 31 32 32 26 28 27 32 31 31 32 32 32 28 32 27 27 28 28 28 31 29 33 33 29 29 29 30 29 30 30 28 30 28 25 25 25 25 24 23 21 17 15 20 22 23 21 19 23 23 23 24 23 24 26 26 26 27 27 27 27 27 26
58 58 58 58 56 56 56 54 57 51 49 49 49 48 47 44 38 35 31 35 37 32 30 31 30 30 31 31 31 29 26 29 30 31 30 31 30 29 28 28 29 28 26 26 26 27 28 27 26 27 31 29 28 27 27 28 28 27 24 24 25 25 20 20 16 20 14 16 18 22 23 22 17 19 22 24 25 26 25 25 26 26 26 27 27 27 27 26
58 58 58 57 58 58 55 54 56 50 49 49 51 49 45 38 41 34 34 34 34 33 29 28 29 28 29 29 29 26 25 28 30 30 30 30 29 28 27 28 28 23 25 25 27 25 25 27 29 27 33 27 27 27 26 27 26 26 25 24 19 15 17 12 11 13 14 17 18 23 23 21 21 22 20 23 27 27 27 26 26 25 26 27 27 27 27 26
57 57 57 57 56 57 57 55 53 50 51 52 52 50 43 37 31 38 37 33 32 31 29 31 28 27 29 28 27 26 29 25 27 29 30 29 30 30 29 28 28 29 25 25 27 24 26 27 27 28 27 29 28 25 24 24 24 24 24 23 19 14 14 11 10 8 13 16 18 22 22 19 22 21 26 26 27 27 27 28 27 26 26 26 26 27 26 26
57 57 56 57 58 57 56 54 53 52 52 53 51 46 41 33 33 41 37 35 35 34 30 29 28 29 27 27 28 27 25 27 29 28 29 28 28 27 29 30 28 27 26 24 26 25 19 21 26 27 26 29 27 27 26 26 24 24 25 25 24 18 11 11 8 11 15 16 16 19 16 15 16 17 26 26 27 27 27 27 27 27 27 26 26 26 25 24
57 57 57 57 57 56 54 54 53 53 53 52 48 43 35 34 35 36 36 36 34 34 32 31 28 27 26 27 29 27 29 25 29 28 27 28 27 27 27 29 29 29 28 25 25 22 25 24 25 28 28 28 27 28 27 26 25 24 25 25 20 22 21 15 14 10 9 12 13 15 17 19 20 24 27 26 26 26 27 27 27 26 26 26 25 24 24 24
56 55 57 53 53 54 54 54 54 55 53 49 44 38 36 36 34 36 36 37 34 32 33 31 31 27 27 27 32 28 30 27 28 28 26 27 27 27 27 28 29 28 27 25 25 22 22 22 26 29 27 26 27 29 27 27 23 24 24 20 25 25 22 16 17 17 15 12 19 11 21 24 23 24 25 25 25 25 25 25 25 25 25 24 23 23 23 24
53 52 50 51 53 54 54 54 54 54 53 48 42 37 41 38 37 38 41 36 37 32 30 27 29 26 27 27 28 31 30 31 28 26 24 27 25 27 27 30 30 28 28 27 25 26 23 23 27 27 26 28 27 28 28 29 28 24 20 23 27 28 26 21 16 11 9 15 14 17 18 20 19 19 23 23 24 24 24 24 24 24 24 23 23 23 23 24
50 50 51 51 53 54 54 54 54 53 50 46 40 40 40 39 41 36 39 37 35 34 32 32 33 30 29 28 28 30 33 28 29 26 26 26 24 29 29 28 31 28 28 28 25 26 26 21 25 28 27 28 28 27 27 28 29 25 25 28 23 19 18 23 17 14 13 12 10 15 19 19 19 19 22 22 24 24 24 24 24 23 23 22 22 23 23 24
50 49 46 50 53 54 53 54 54 51 47 42 40 40 42 40 40 38 39 40 40 38 35 36 34 33 33 30 31 34 31 28 29 26 25 27 24 28 28 31 29 30 31 28 26 28 27 20 24 28 28 28 27 27 24 25 28 30 29 26 28 25 22 18 21 17 17 12 13 13 16 19 21 20 22 22 24 25 24 24 23 23 23 22 21 22 23 24
48 46 45 51 54 54 53 54 50 48 45 39 41 41 41 39 40 40 41 40 39 38 38 36 37 35 34 34 35 34 33 31 28 27 28 30 27 32 28 34 28 30 31 29 29 33 27 26 19 25 28 27 24 26 25 26 26 25 25 25 25 22 26 26 22 21 19 15 17 17 16 21 23 23 23 22 24 25 24 24 24 24 23 22 22 22 23 24
48 46 46 52 53 54 53 51 46 43 42 41 41 40 39 38 39 40 42 43 43 43 40 38 38 37 37 36 35 36 34 33 31 32 31 30 28 26 32 31 31 30 34 32 30 32 27 26 24 26 26 25 26 28 27 28 28 27 26 25 25 24 21 21 22 25 22 22 20 20 19 22 26 27 25 24 24 25 25 25 24 24 23 23 23 23 23 24
46 41 44 52 53 53 50 43 43 43 41 41 41 41 39 44 39 40 40 42 42 41 43 40 39 37 35 36 36 35 34 33 32 31 32 32 33 32 34 36 32 32 30 28 29 33 30 30 27 24 25 27 29 31 31 32 33 31 28 27 28 28 26 23 21 24 23 23 25 23 21 24 26 27 27 27 25 25 25 25 24 24 24 23 23 23 23 23
45 43 49 52 54 52 47 42 43 42 42 42 43 42 42 41 39 40 39 40 39 42 40 39 38 36 36 35 35 33 36 33 36 34 33 32 32 34 34 37 37 36 36 33 34 33 35 30 27 29 30 32 31 31 34 32 31 29 28 29 27 26 27 26 25 25 23 22 22 21 22 26 29 30 25 25 24 25 25 25 24 24 24 24 23 23 23 23
44 44 46 51 53 52 45 38 38 40 41 42 42 42 43 42 40 39 39 40 39 41 40 39 39 38 37 37 36 35 37 32 35 35 33 33 32 38 37 38 37 34 34 34 32 37 30 31 31 27 27 29 30 31 32 32 31 29 27 28 29 29 28 27 25 24 23 25 25 22 21 23 31 29 27 24 24 24 24 25 25 24 25 24 24 24 23 23
44 44 45 48 51 50 42 43 41 40 41 41 41 40 41 41 42 42 40 40 42 41 40 39 40 39 38 39 37 38 38 35 33 35 34 33 34 37 37 36 36 34 36 37 38 37 32 32 31 27 25 23 23 22 23 27 29 29 29 27 28 27 25 24 21 23 24 25 25 22 23 26 26 26 25 25 27 24 24 24 23 24 23 24 24 24 24 23
40 35 41 42 47 46 45 45 43 41 40 40 39 40 41 40 41 42 42 41 41 42 41 40 39 40 38 37 36 36 36 36 35 32 33 33 34 35 36 35 36 36 36 39 37 38 33 32 33 32 30 28 28 25 26 29 26 27 26 26 26 26 26 26 24 22 23 24 25 26 26 24 24 24 25 25 23 23 23 22 23 23 24 24 24 24 24 24
41 36 36 35 42 43 42 44 41 42 39 41 37 39 39 40 40 40 43 39 42 42 40 40 39 38 37 37 36 36 37 36 37 35 35 33 33 34 35 33 34 36 38 36 35 34 31 31 32 32 32 32 29 26 26 29 26 25 25 24 25 24 23 24 23 22 25 22 21 25 25 23 24 24 24 24 24 24 24 24 25 25 24 24 24 24 28 23
36 37 40 42 37 35 37 39 42 41 41 42 39 40 38 38 39 38 41 42 41 42 40 39 40 40 39 38 37 34 36 36 36 35 34 34 34 34 33 33 32 34 35 34 33 34 31 31 32 30 30 28 27 26 27 27 27 27 25 25 24 25 22 22 21 24 23 22 20 22 23 22 23 24 24 24 24 24 24 24 25 25 25 24 24 24 24 23
39 37 38 40 37 38 39 39 41 41 41 41 39 40 38 38 38 39 39 38 39 39 41 36 38 40 39 39 38 35 35 33 33 36 34 33 34 33 33 33 34 32 31 31 31 30 32 29 27 28 27 26 26 26 25 26 24 23 24 25 26 25 23 24 22 23 24 23 22 22 22 20 20 20 19 21 24 23 22 22 23 23 24 24 24 24 24 23
35 35 34 37 36 34 35 38 40 41 38 40 36 38 38 38 37 39 38 39 35 37 40 39 38 39 39 37 39 36 36 36 35 34 35 33 32 33 33 33 31 31 31 32 31 31 32 27 29 25 26 25 21 24 24 25 23 24 24 24 24 22 22 23 24 23 22 20 20 20 19 19 21 21 21 21 22 23 23 23 23 24 24 24 24 23 22 21
36 37 35 34 33 33 33 35 38 38 37 38 37 37 37 38 37 39 37 40 38 36 38 38 38 37 37 38 38 38 38 37 36 35 36 35 34 35 34 33 32 30 29 29 28 30 29 27 22 23 24 22 19 23 21 19 19 19 20 21 19 19 20 21 21 21 21 20 20 18 16 19 21 20 22 22 22 22 22 23 23 24 24 23 22 22 20 19
34 34 36 34 31 35 33 33 36 36 34 37 37 37 37 37 37 38 36 37 39 39 40 40 40 39 36 36 37 38 39 34 35 30 30 32 32 32 32 32 34 32 30 31 27 29 28 25 22 20 23 20 18 18 17 16 18 18 19 18 17 19 20 20 19 21 21 21 17 16 18 21 20 20 17 18 21 21 20 21 23 22 22 23 22 21 21 20